QPF
0.00 0.00 0.00 0.00 0.00 0.00 0.00 0.00 0.00 0.00 0.00 0.00 0.00 0.00 0.00 0.00 0.00 0.00 0.00 0.00 0.00 0.00 0.00 0.00 0.00 0.00 0.00 0.00 0.00 0.00 0.00 0.00 0.00 0.00 0.00 0.00 0.00 0.00 0.00 0.00 0.00 0.00 0.00 0.00 0.00 0.00 0.00 0.00 0.00 0.00 0.00 0.00 0.00 0.00 0.00 0.00 0.00 0.00 0.00 0.00 0.00 0.00 0.00 0.00 0.00 0.00 0.00 0.00 0.00
0.00 0.00 0.00 0.00 0.00 0.00 0.00 0.00 0.00 0.00 0.00 0.00 0.00 0.00 0.00 0.00 0.00 0.00 0.00 0.00 0.00 0.00 0.00 0.00 0.00 0.00 0.00 0.00 0.00 0.00 0.00 0.00 0.00 0.00 0.00 0.00 0.00 0.00 0.00 0.00 0.00 0.00 0.00 0.00 0.00 0.00 0.00 0.00 0.00 0.00 0.00 0.00 0.00 0.00 0.00 0.00 0.00 0.00 0.00 0.00 0.00 0.00 0.00 0.00 0.00 0.00 0.00 0.00 0.00
0.00 0.00 0.00 0.00 0.00 0.00 0.00 0.00 0.00 0.00 0.00 0.00 0.00 0.00 0.00 0.00 0.00 0.00 0.00 0.00 0.00 0.00 0.00 0.00 0.00 0.00 0.00 0.00 0.00 0.00 0.00 0.00 0.00 0.00 0.00 0.00 0.00 0.00 0.00 0.00 0.00 0.00 0.00 0.00 0.00 0.00 0.00 0.00 0.00 0.00 0.00 0.00 0.00 0.00 0.00 0.00 0.00 0.00 0.00 0.00 0.00 0.00 0.00 0.00 0.00 0.00 0.00 0.00 0.00
0.00 0.00 0.00 0.00 0.00 0.00 0.00 0.00 0.00 0.00 0.00 0.00 0.00 0.00 0.00 0.00 0.00 0.00 0.00 0.00 0.00 0.00 0.00 0.00 0.00 0.00 0.00 0.00 0.00 0.00 0.00 0.00 0.00 0.00 0.00 0.00 0.00 0.00 0.00 0.00 0.00 0.00 0.00 0.00 0.00 0.00 0.00 0.00 0.00 0.00 0.00 0.00 0.00 0.00 0.00 0.00 0.00 0.00 0.00 0.00 0.00 0.00 0.00 0.00 0.00 0.00 0.00 0.00 0.00
0.00 0.00 0.00 0.00 0.00 0.00 0.00 0.00 0.00 0.00 0.00 0.00 0.00 0.00 0.00 0.00 0.00 0.00 0.00 0.00 0.00 0.00 0.00 0.00 0.00 0.00 0.00 0.00 0.00 0.00 0.00 0.00 0.00 0.00 0.00 0.00 0.00 0.00 0.00 0.00 0.00 0.00 0.00 0.00 0.00 0.00 0.00 0.00 0.00 0.00 0.00 0.00 0.00 0.00 0.00 0.00 0.00 0.00 0.00 0.00 0.00 0.00 0.00 0.00 0.00 0.00 0.00 0.00 0.00
0.00 0.00 0.00 0.00 0.00 0.00 0.00 0.00 0.00 0.00 0.00 0.00 0.00 0.00 0.00 0.00 0.00 0.00 0.00 0.00 0.00 0.00 0.00 0.00 0.00 0.00 0.00 0.00 0.00 0.00 0.00 0.00 0.00 0.00 0.00 0.00 0.00 0.00 0.00 0.00 0.00 0.00 0.00 0.00 0.00 0.00 0.00 0.00 0.00 0.00 0.00 0.00 0.00 0.00 0.00 0.00 0.00 0.00 0.00 0.00 0.00 0.00 0.00 0.00 0.00 0.00 0.00 0.00 0.00
0.00 0.00 0.00 0.00 0.00 0.00 0.00 0.00 0.00 0.00 0.00 0.00 0.00 0.00 0.00 0.00 0.00 0.00 0.00 0.00 0.00 0.00 0.00 0.00 0.00 0.00 0.00 0.00 0.00 0.00 0.00 0.00 0.00 0.00 0.00 0.00 0.00 0.00 0.00 0.00 0.00 0.00 0.00 0.00 0.00 0.00 0.00 0.00 0.00 0.00 0.00 0.00 0.00 0.00 0.00 0.00 0.00 0.00 0.00 0.00 0.00 0.00 0.00 0.00 0.00 0.00 0.00 0.00 0.00
0.00 0.00 0.00 0.00 0.00 0.00 0.00 0.00 0.00 0.00 0.00 0.00 0.00 0.00 0.00 0.00 0.00 0.00 0.00 0.00 0.00 0.00 0.00 0.00 0.00 0.00 0.00 0.00 0.00 0.00 0.00 0.00 0.00 0.00 0.00 0.00 0.00 0.00 0.00 0.00 0.00 0.00 0.00 0.00 0.00 0.00 0.00 0.00 0.00 0.00 0.00 0.00 0.00 0.00 0.00 0.00 0.00 0.00 0.00 0.00 0.00 0.00 0.00 0.00 0.00 0.00 0.00 0.00 0.00
0.00 0.00 0.00 0.00 0.00 0.00 0.00 0.00 0.00 0.00 0.00 0.00 0.00 0.00 0.00 0.00 0.00 0.00 0.00 0.00 0.00 0.00 0.00 0.00 0.00 0.00 0.00 0.00 0.00 0.00 0.00 0.00 0.00 0.00 0.00 0.00 0.00 0.00 0.00 0.00 0.00 0.00 0.00 0.00 0.00 0.00 0.00 0.00 0.00 0.00 0.00 0.00 0.00 0.00 0.00 0.00 0.00 0.00 0.00 0.00 0.00 0.00 0.00 0.00 0.00 0.00 0.00 0.00 0.00
0.00 0.00 0.00 0.00 0.00 0.00 0.00 0.00 0.00 0.00 0.00 0.00 0.00 0.00 0.00 0.00 0.00 0.00 0.00 0.00 0.00 0.00 0.00 0.00 0.00 0.00 0.00 0.00 0.00 0.00 0.00 0.00 0.00 0.00 0.00 0.00 0.00 0.00 0.00 0.00 0.00 0.00 0.00 0.00 0.00 0.00 0.00 0.00 0.00 0.00 0.00 0.00 0.00 0.00 0.00 0.00 0.00 0.00 0.00 0.00 0.00 0.00 0.00 0.00 0.00 0.00 0.00 0.00 0.00
0.00 0.00 0.00 0.00 0.00 0.00 0.00 0.00 0.00 0.00 0.00 0.00 0.00 0.00 0.00 0.00 0.00 0.00 0.00 0.00 0.00 0.00 0.00 0.00 0.00 0.00 0.00 0.00 0.00 0.00 0.00 0.00 0.00 0.00 0.00 0.00 0.00 0.00 0.00 0.00 0.00 0.00 0.00 0.00 0.00 0.00 0.00 0.00 0.00 0.00 0.00 0.00 0.00 0.00 0.00 0.00 0.00 0.00 0.00 0.00 0.00 0.00 0.00 0.00 0.00 0.00 0.00 0.00 0.00
0.00 0.00 0.00 0.00 0.00 0.00 0.00 0.00 0.00 0.00 0.00 0.00 0.00 0.00 0.00 0.00 0.00 0.00 0.00 0.00 0.00 0.00 0.00 0.00 0.00 0.00 0.00 0.00 0.00 0.00 0.00 0.00 0.00 0.00 0.00 0.00 0.00 0.00 0.00 0.00 0.00 0.00 0.00 0.00 0.00 0.00 0.00 0.00 0.00 0.00 0.00 0.00 0.00 0.00 0.00 0.00 0.00 0.00 0.00 0.00 0.00 0.00 0.00 0.00 0.00 0.00 0.00 0.00 0.00
0.00 0.00 0.00 0.00 0.00 0.00 0.00 0.00 0.00 0.00 0.00 0.00 0.00 0.00 0.00 0.00 0.00 0.00 0.00 0.00 0.00 0.00 0.00 0.00 0.00 0.00 0.00 0.00 0.00 0.00 0.00 0.00 0.00 0.00 0.00 0.00 0.00 0.00 0.00 0.00 0.00 0.00 0.00 0.00 0.00 0.00 0.00 0.00 0.00 0.00 0.00 0.00 0.00 0.00 0.00 0.00 0.00 0.00 0.00 0.00 0.00 0.00 0.00 0.00 0.00 0.00 0.00 0.00 0.00
0.00 0.00 0.00 0.00 0.00 0.00 0.00 0.00 0.00 0.00 0.00 0.00 0.00 0.00 0.00 0.00 0.00 0.00 0.00 0.00 0.00 0.00 0.00 0.00 0.00 0.00 0.00 0.00 0.00 0.00 0.00 0.00 0.00 0.00 0.00 0.00 0.00 0.00 0.00 0.00 0.00 0.00 0.00 0.00 0.00 0.00 0.00 0.00 0.00 0.00 0.00 0.00 0.00 0.00 0.00 0.00 0.00 0.00 0.00 0.00 0.00 0.00 0.00 0.00 0.00 0.00 0.00 0.00 0.00
0.00 0.00 0.00 0.00 0.00 0.00 0.00 0.00 0.00 0.00 0.00 0.00 0.00 0.00 0.00 0.00 0.00 0.00 0.00 0.00 0.00 0.00 0.00 0.00 0.00 0.00 0.00 0.00 0.00 0.00 0.00 0.00 0.00 0.00 0.00 0.00 0.00 0.00 0.00 0.00 0.00 0.00 0.00 0.00 0.00 0.00 0.00 0.00 0.00 0.00 0.00 0.00 0.00 0.00 0.00 0.00 0.00 0.00 0.00 0.00 0.00 0.00 0.00 0.00 0.00 0.00 0.00 0.00 0.00
0.00 0.00 0.00 0.00 0.00 0.00 0.00 0.00 0.00 0.00 0.00 0.00 0.00 0.00 0.00 0.00 0.00 0.00 0.00 0.00 0.00 0.00 0.00 0.00 0.00 0.00 0.00 0.00 0.00 0.00 0.00 0.00 0.00 0.00 0.00 0.00 0.00 0.00 0.00 0.00 0.00 0.00 0.00 0.00 0.00 0.00 0.00 0.00 0.00 0.00 0.00 0.00 0.00 0.00 0.00 0.00 0.00 0.00 0.00 0.00 0.00 0.00 0.00 0.00 0.00 0.00 0.00 0.00 0.00
0.00 0.00 0.00 0.00 0.00 0.00 0.00 0.00 0.00 0.00 0.00 0.00 0.00 0.00 0.00 0.00 0.00 0.00 0.00 0.00 0.00 0.00 0.00 0.00 0.00 0.00 0.00 0.00 0.00 0.00 0.00 0.00 0.00 0.00 0.00 0.00 0.00 0.00 0.00 0.00 0.00 0.00 0.00 0.00 0.00 0.00 0.00 0.00 0.00 0.00 0.00 0.00 0.00 0.00 0.00 0.00 0.00 0.00 0.00 0.00 0.00 0.00 0.00 0.00 0.00 0.00 0.00 0.00 0.00
0.00 0.00 0.00 0.00 0.00 0.00 0.00 0.00 0.00 0.00 0.00 0.00 0.00 0.00 0.00 0.00 0.00 0.00 0.00 0.00 0.00 0.00 0.00 0.00 0.00 0.00 0.00 0.00 0.00 0.00 0.00 0.00 0.00 0.00 0.00 0.00 0.00 0.00 0.00 0.00 0.00 0.00 0.00 0.00 0.00 0.00 0.00 0.00 0.00 0.00 0.00 0.00 0.00 0.00 0.00 0.00 0.00 0.00 0.00 0.00 0.00 0.00 0.00 0.00 0.00 0.00 0.00 0.00 0.00
0.00 0.00 0.00 0.00 0.00 0.00 0.00 0.00 0.00 0.00 0.00 0.00 0.00 0.00 0.00 0.00 0.00 0.00 0.00 0.00 0.00 0.00 0.00 0.00 0.00 0.00 0.00 0.00 0.00 0.00 0.00 0.00 0.00 0.00 0.00 0.00 0.00 0.00 0.00 0.00 0.00 0.00 0.00 0.00 0.00 0.00 0.00 0.00 0.00 0.00 0.00 0.00 0.00 0.00 0.00 0.00 0.00 0.00 0.00 0.00 0.00 0.00 0.00 0.00 0.00 0.00 0.00 0.00 0.00
0.00 0.00 0.00 0.00 0.00 0.00 0.00 0.00 0.00 0.00 0.00 0.00 0.00 0.00 0.00 0.00 0.00 0.00 0.00 0.00 0.00 0.00 0.00 0.00 0.00 0.00 0.00 0.00 0.00 0.00 0.00 0.00 0.00 0.00 0.00 0.00 0.00 0.00 0.00 0.00 0.00 0.00 0.00 0.00 0.00 0.00 0.00 0.00 0.00 0.00 0.00 0.00 0.00 0.00 0.00 0.00 0.00 0.00 0.00 0.00 0.00 0.00 0.00 0.00 0.00 0.00 0.00 0.00 0.00
0.00 0.00 0.00 0.00 0.00 0.00 0.00 0.00 0.00 0.00 0.00 0.00 0.00 0.00 0.00 0.00 0.00 0.00 0.00 0.00 0.00 0.00 0.00 0.00 0.00 0.00 0.00 0.00 0.00 0.00 0.00 0.00 0.00 0.00 0.00 0.00 0.00 0.00 0.00 0.00 0.00 0.00 0.00 0.00 0.00 0.00 0.00 0.00 0.00 0.00 0.00 0.00 0.00 0.00 0.00 0.00 0.00 0.00 0.00 0.00 0.00 0.00 0.00 0.00 0.00 0.00 0.00 0.00 0.00
0.00 0.00 0.00 0.00 0.00 0.00 0.00 0.00 0.00 0.00 0.00 0.00 0.00 0.00 0.00 0.00 0.00 0.00 0.00 0.00 0.00 0.00 0.00 0.00 0.00 0.00 0.00 0.00 0.00 0.00 0.00 0.00 0.00 0.00 0.00 0.00 0.00 0.00 0.00 0.00 0.00 0.00 0.00 0.00 0.00 0.00 0.00 0.00 0.00 0.00 0.00 0.00 0.00 0.00 0.00 0.00 0.00 0.00 0.00 0.00 0.00 0.00 0.00 0.00 0.00 0.00 0.00 0.00 0.00
0.00 0.00 0.00 0.00 0.00 0.00 0.00 0.00 0.00 0.00 0.00 0.00 0.00 0.00 0.00 0.00 0.00 0.00 0.00 0.00 0.00 0.00 0.00 0.00 0.00 0.00 0.00 0.00 0.00 0.00 0.00 0.00 0.00 0.00 0.00 0.00 0.00 0.00 0.00 0.00 0.00 0.00 0.00 0.00 0.00 0.00 0.00 0.00 0.00 0.00 0.00 0.00 0.00 0.00 0.00 0.00 0.00 0.00 0.00 0.00 0.00 0.00 0.00 0.00 0.00 0.00 0.00 0.00 0.00
0.00 0.00 0.00 0.00 0.00 0.00 0.00 0.00 0.00 0.00 0.00 0.00 0.00 0.00 0.00 0.00 0.00 0.00 0.00 0.00 0.00 0.00 0.00 0.00 0.00 0.00 0.00 0.00 0.00 0.00 0.00 0.00 0.00 0.00 0.00 0.00 0.00 0.00 0.00 0.00 0.00 0.00 0.00 0.00 0.00 0.00 0.00 0.00 0.00 0.00 0.00 0.00 0.00 0.00 0.00 0.00 0.00 0.00 0.00 0.00 0.00 0.00 0.00 0.00 0.00 0.00 0.00 0.00 0.00
0.00 0.00 0.00 0.00 0.00 0.00 0.00 0.00 0.00 0.00 0.00 0.00 0.00 0.00 0.00 0.00 0.00 0.00 0.00 0.00 0.00 0.00 0.00 0.00 0.00 0.00 0.00 0.00 0.00 0.00 0.00 0.00 0.00 0.00 0.00 0.00 0.00 0.00 0.00 0.00 0.00 0.00 0.00 0.00 0.00 0.00 0.00 0.00 0.00 0.00 0.00 0.00 0.00 0.00 0.00 0.00 0.00 0.00 0.00 0.00 0.00 0.00 0.00 0.00 0.00 0.00 0.00 0.00 0.00
0.00 0.00 0.00 0.00 0.00 0.00 0.00 0.00 0.00 0.00 0.00 0.00 0.00 0.00 0.00 0.00 0.00 0.00 0.00 0.00 0.00 0.00 0.00 0.00 0.00 0.00 0.00 0.00 0.00 0.00 0.00 0.00 0.00 0.00 0.00 0.00 0.00 0.00 0.00 0.00 0.00 0.00 0.00 0.00 0.00 0.00 0.00 0.00 0.00 0.00 0.00 0.00 0.00 0.00 0.00 0.00 0.00 0.00 0.00 0.00 0.00 0.00 0.00 0.00 0.00 0.00 0.00 0.00 0.00
0.00 0.00 0.00 0.00 0.00 0.00 0.00 0.00 0.00 0.00 0.00 0.00 0.00 0.00 0.00 0.00 0.00 0.00 0.00 0.00 0.00 0.00 0.00 0.00 0.00 0.00 0.00 0.00 0.00 0.00 0.00 0.00 0.00 0.00 0.00 0.00 0.00 0.00 0.00 0.00 0.00 0.00 0.00 0.00 0.00 0.00 0.00 0.00 0.00 0.00 0.00 0.00 0.00 0.00 0.00 0.00 0.00 0.00 0.00 0.00 0.00 0.00 0.00 0.00 0.00 0.00 0.00 0.00 0.00
0.00 0.00 0.00 0.00 0.00 0.00 0.00 0.00 0.00 0.00 0.00 0.00 0.00 0.00 0.00 0.00 0.00 0.00 0.00 0.00 0.00 0.00 0.00 0.00 0.00 0.00 0.00 0.00 0.00 0.00 0.00 0.00 0.00 0.00 0.00 0.00 0.00 0.00 0.00 0.00 0.00 0.00 0.00 0.00 0.00 0.00 0.00 0.00 0.00 0.00 0.00 0.00 0.00 0.00 0.00 0.00 0.00 0.00 0.00 0.00 0.00 0.00 0.00 0.00 0.00 0.00 0.00 0.00 0.00
0.00 0.00 0.00 0.00 0.00 0.00 0.00 0.00 0.00 0.00 0.00 0.00 0.00 0.00 0.00 0.00 0.00 0.00 0.00 0.00 0.00 0.00 0.00 0.00 0.00 0.00 0.00 0.00 0.00 0.00 0.00 0.00 0.00 0.00 0.00 0.00 0.00 0.00 0.00 0.00 0.00 0.00 0.00 0.00 0.00 0.00 0.00 0.00 0.00 0.00 0.00 0.00 0.00 0.00 0.00 0.00 0.00 0.00 0.00 0.00 0.00 0.00 0.00 0.00 0.00 0.00 0.00 0.00 0.00
0.00 0.00 0.00 0.00 0.00 0.00 0.00 0.00 0.00 0.00 0.00 0.00 0.00 0.00 0.00 0.00 0.00 0.00 0.00 0.00 0.00 0.00 0.00 0.00 0.00 0.00 0.00 0.00 0.00 0.00 0.00 0.00 0.00 0.00 0.00 0.00 0.00 0.00 0.00 0.00 0.00 0.00 0.00 0.00 0.00 0.00 0.00 0.00 0.00 0.00 0.00 0.00 0.00 0.00 0.00 0.00 0.00 0.00 0.00 0.00 0.00 0.00 0.00 0.00 0.00 0.00 0.00 0.00 0.00
0.00 0.00 0.00 0.00 0.00 0.00 0.00 0.00 0.00 0.00 0.00 0.00 0.00 0.00 0.00 0.00 0.00 0.00 0.00 0.00 0.00 0.00 0.00 0.00 0.00 0.00 0.00 0.00 0.00 0.00 0.00 0.00 0.00 0.00 0.00 0.00 0.00 0.00 0.00 0.00 0.00 0.00 0.00 0.00 0.00 0.00 0.00 0.00 0.00 0.00 0.00 0.00 0.00 0.00 0.00 0.00 0.00 0.00 0.00 0.00 0.00 0.00 0.00 0.00 0.00 0.00 0.00 0.00 0.00
0.00 0.00 0.00 0.00 0.00 0.00 0.00 0.00 0.00 0.00 0.00 0.00 0.00 0.00 0.00 0.00 0.00 0.00 0.00 0.00 0.00 0.00 0.00 0.00 0.00 0.00 0.00 0.00 0.00 0.00 0.00 0.00 0.00 0.00 0.00 0.00 0.00 0.00 0.00 0.00 0.00 0.00 0.00 0.00 0.00 0.00 0.00 0.00 0.00 0.00 0.00 0.00 0.00 0.00 0.00 0.00 0.00 0.00 0.00 0.00 0.00 0.00 0.00 0.00 0.00 0.00 0.00 0.00 0.00
0.00 0.00 0.00 0.00 0.00 0.00 0.00 0.00 0.00 0.00 0.00 0.00 0.00 0.00 0.00 0.00 0.00 0.00 0.00 0.00 0.00 0.00 0.00 0.00 0.00 0.00 0.00 0.00 0.00 0.00 0.00 0.00 0.00 0.00 0.00 0.00 0.00 0.00 0.00 0.00 0.00 0.00 0.00 0.00 0.00 0.00 0.00 0.00 0.00 0.00 0.00 0.00 0.00 0.00 0.00 0.00 0.00 0.00 0.00 0.00 0.00 0.00 0.00 0.00 0.00 0.00 0.00 0.00 0.00
0.00 0.00 0.00 0.00 0.00 0.00 0.00 0.00 0.00 0.00 0.00 0.00 0.00 0.00 0.00 0.00 0.00 0.00 0.00 0.00 0.00 0.00 0.00 0.00 0.00 0.00 0.00 0.00 0.00 0.00 0.00 0.00 0.00 0.00 0.00 0.00 0.00 0.00 0.00 0.00 0.00 0.00 0.00 0.00 0.00 0.00 0.00 0.00 0.00 0.00 0.00 0.00 0.00 0.00 0.00 0.00 0.00 0.00 0.00 0.00 0.00 0.00 0.00 0.00 0.00 0.00 0.00 0.00 0.00
0.00 0.00 0.00 0.00 0.00 0.00 0.00 0.00 0.00 0.00 0.00 0.00 0.00 0.00 0.00 0.00 0.00 0.00 0.00 0.00 0.00 0.00 0.00 0.00 0.00 0.00 0.00 0.00 0.00 0.00 0.00 0.00 0.00 0.00 0.00 0.00 0.00 0.00 0.00 0.00 0.00 0.00 0.00 0.00 0.00 0.00 0.00 0.00 0.00 0.00 0.00 0.00 0.00 0.00 0.00 0.00 0.00 0.00 0.00 0.00 0.00 0.00 0.00 0.00 0.00 0.00 0.00 0.00 0.00
0.00 0.00 0.00 0.00 0.00 0.00 0.00 0.00 0.00 0.00 0.00 0.00 0.00 0.00 0.00 0.00 0.00 0.00 0.00 0.00 0.00 0.00 0.00 0.00 0.00 0.00 0.00 0.00 0.00 0.00 0.00 0.00 0.00 0.00 0.00 0.00 0.00 0.00 0.00 0.00 0.00 0.00 0.00 0.00 0.00 0.00 0.00 0.00 0.00 0.00 0.00 0.00 0.00 0.00 0.00 0.00 0.00 0.00 0.00 0.00 0.00 0.00 0.00 0.00 0.00 0.00 0.00 0.00 0.00
0.00 0.00 0.00 0.00 0.00 0.00 0.00 0.00 0.00 0.00 0.00 0.00 0.00 0.00 0.00 0.00 0.00 0.00 0.00 0.00 0.00 0.00 0.00 0.00 0.00 0.00 0.00 0.00 0.00 0.00 0.00 0.00 0.00 0.00 0.00 0.00 0.00 0.00 0.00 0.00 0.00 0.00 0.00 0.00 0.00 0.00 0.00 0.00 0.00 0.00 0.00 0.00 0.00 0.00 0.00 0.00 0.00 0.00 0.00 0.00 0.00 0.00 0.00 0.00 0.00 0.00 0.00 0.00 0.00
0.00 0.00 0.00 0.00 0.00 0.00 0.00 0.00 0.00 0.00 0.00 0.00 0.00 0.00 0.00 0.00 0.00 0.00 0.00 0.00 0.00 0.00 0.00 0.00 0.00 0.00 0.00 0.00 0.00 0.00 0.00 0.00 0.00 0.00 0.00 0.00 0.00 0.00 0.00 0.00 0.00 0.00 0.00 0.00 0.00 0.00 0.00 0.00 0.00 0.00 0.00 0.00 0.00 0.00 0.00 0.00 0.00 0.00 0.00 0.00 0.00 0.00 0.00 0.00 0.00 0.00 0.00 0.00 0.00
0.00 0.00 0.00 0.00 0.00 0.00 0.00 0.00 0.00 0.00 0.00 0.00 0.00 0.00 0.00 0.00 0.00 0.00 0.00 0.00 0.00 0.00 0.00 0.00 0.00 0.00 0.00 0.00 0.00 0.00 0.00 0.00 0.00 0.00 0.00 0.00 0.00 0.00 0.00 0.00 0.00 0.00 0.00 0.00 0.00 0.00 0.00 0.00 0.00 0.00 0.00 0.00 0.00 0.00 0.00 0.00 0.00 0.00 0.00 0.00 0.00 0.00 0.00 0.00 0.00 0.00 0.00 0.00 0.00
0.00 0.00 0.00 0.00 0.00 0.00 0.00 0.00 0.00 0.00 0.00 0.00 0.00 0.00 0.00 0.00 0.00 0.00 0.00 0.00 0.00 0.00 0.00 0.00 0.00 0.00 0.00 0.00 0.00 0.00 0.00 0.00 0.00 0.00 0.00 0.00 0.00 0.00 0.00 0.00 0.00 0.00 0.00 0.00 0.00 0.00 0.00 0.00 0.00 0.00 0.00 0.00 0.00 0.00 0.00 0.00 0.00 0.00 0.00 0.00 0.00 0.00 0.00 0.00 0.00 0.00 0.00 0.00 0.00
0.00 0.00 0.00 0.00 0.00 0.00 0.00 0.00 0.00 0.00 0.00 0.00 0.00 0.00 0.00 0.00 0.00 0.00 0.00 0.00 0.00 0.00 0.00 0.00 0.00 0.00 0.00 0.00 0.00 0.00 0.00 0.00 0.00 0.00 0.00 0.00 0.00 0.00 0.00 0.00 0.00 0.00 0.00 0.00 0.00 0.00 0.00 0.00 0.00 0.00 0.00 0.00 0.00 0.00 0.00 0.00 0.00 0.00 0.00 0.00 0.00 0.00 0.00 0.00 0.00 0.00 0.00 0.00 0.00
MSLP
1016.51 1016.71 1016.99 1017.15 1017.35 1017.55 1017.71 1017.83 1018.03 1018.19 1018.39 1018.55 1018.71 1018.91 1019.11 1019.27 1019.51 1019.71 1019.91 1020.07 1020.23 1020.39 1020.47 1020.63 1020.75 1020.83 1020.99 1021.15 1021.27 1021.43 1021.51 1021.59 1021.79 1021.91 1022.07 1022.19 1022.31 1022.47 1022.59 1022.71 1022.87 1022.99 1023.07 1023.15 1023.27 1023.35 1023.43 1023.47 1023.55 1023.67 1023.71 1023.75 1023.79 1023.79 1023.79 1023.83 1023.87 1023.87 1023.87 1023.91 1023.87 1023.87 1023.87 1023.87 1023.83 1023.83 1023.83 1023.79 1023.79
1016.43 1016.67 1016.87 1017.11 1017.27 1017.47 1017.63 1017.83 1017.99 1018.19 1018.31 1018.43 1018.59 1018.79 1018.99 1019.19 1019.35 1019.55 1019.71 1019.87 1020.03 1020.19 1020.31 1020.43 1020.55 1020.71 1020.83 1021.03 1021.15 1021.27 1021.35 1021.47 1021.67 1021.79 1021.95 1022.11 1022.27 1022.43 1022.55 1022.71 1022.79 1022.91 1022.99 1023.11 1023.15 1023.27 1023.35 1023.43 1023.47 1023.55 1023.63 1023.71 1023.71 1023.71 1023.71 1023.71 1023.79 1023.83 1023.83 1023.83 1023.83 1023.83 1023.83 1023.83 1023.83 1023.79 1023.75 1023.75 1023.75
1016.43 1016.63 1016.83 1017.07 1017.27 1017.43 1017.59 1017.75 1017.95 1018.11 1018.27 1018.43 1018.55 1018.71 1018.91 1019.11 1019.27 1019.43 1019.59 1019.75 1019.91 1020.03 1020.15 1020.31 1020.43 1020.55 1020.75 1020.91 1021.03 1021.15 1021.23 1021.35 1021.51 1021.71 1021.83 1021.99 1022.15 1022.31 1022.43 1022.59 1022.71 1022.83 1022.95 1023.03 1023.15 1023.19 1023.27 1023.35 1023.39 1023.47 1023.55 1023.55 1023.59 1023.59 1023.55 1023.55 1023.67 1023.71 1023.71 1023.75 1023.75 1023.75 1023.79 1023.79 1023.79 1023.75 1023.75 1023.75 1023.71
1016.43 1016.59 1016.83 1017.03 1017.15 1017.35 1017.55 1017.71 1017.83 1018.03 1018.23 1018.43 1018.59 1018.75 1018.87 1019.03 1019.19 1019.35 1019.51 1019.67 1019.79 1019.91 1020.03 1020.15 1020.27 1020.47 1020.63 1020.79 1020.91 1021.03 1021.15 1021.27 1021.43 1021.59 1021.79 1021.95 1022.11 1022.27 1022.39 1022.55 1022.67 1022.75 1022.87 1022.99 1023.11 1023.15 1023.19 1023.27 1023.35 1023.43 1023.43 1023.47 1023.47 1023.47 1023.47 1023.51 1023.55 1023.59 1023.63 1023.71 1023.71 1023.71 1023.71 1023.75 1023.71 1023.71 1023.71 1023.71 1023.71
1016.43 1016.59 1016.83 1016.99 1017.15 1017.27 1017.47 1017.71 1017.83 1017.99 1018.19 1018.39 1018.55 1018.71 1018.83 1018.99 1019.15 1019.27 1019.43 1019.59 1019.71 1019.83 1019.95 1020.07 1020.19 1020.39 1020.55 1020.71 1020.83 1020.95 1021.07 1021.23 1021.35 1021.51 1021.67 1021.83 1021.99 1022.15 1022.31 1022.43 1022.55 1022.71 1022.83 1022.91 1023.03 1023.11 1023.15 1023.19 1023.27 1023.31 1023.39 1023.43 1023.43 1023.43 1023.43 1023.47 1023.47 1023.51 1023.55 1023.59 1023.59 1023.67 1023.71 1023.71 1023.67 1023.67 1023.67 1023.67 1023.67
1016.47 1016.67 1016.83 1016.99 1017.19 1017.35 1017.51 1017.71 1017.83 1017.99 1018.15 1018.35 1018.51 1018.67 1018.79 1018.95 1019.11 1019.27 1019.39 1019.51 1019.59 1019.71 1019.83 1019.99 1020.11 1020.27 1020.43 1020.63 1020.71 1020.83 1020.99 1021.19 1021.27 1021.43 1021.59 1021.79 1021.95 1022.11 1022.23 1022.39 1022.47 1022.59 1022.71 1022.83 1022.95 1023.03 1023.11 1023.15 1023.19 1023.27 1023.27 1023.27 1023.31 1023.35 1023.39 1023.43 1023.43 1023.43 1023.47 1023.55 1023.55 1023.55 1023.55 1023.59 1023.55 1023.55 1023.55 1023.55 1023.55
1016.55 1016.71 1016.87 1017.07 1017.23 1017.39 1017.51 1017.67 1017.79 1017.91 1018.11 1018.27 1018.39 1018.51 1018.67 1018.79 1018.99 1019.15 1019.27 1019.39 1019.51 1019.67 1019.83 1019.99 1020.11 1020.27 1020.39 1020.51 1020.67 1020.79 1020.95 1021.11 1021.27 1021.39 1021.51 1021.71 1021.83 1021.99 1022.15 1022.27 1022.39 1022.51 1022.67 1022.71 1022.83 1022.99 1023.03 1023.07 1023.11 1023.15 1023.19 1023.23 1023.23 1023.27 1023.27 1023.31 1023.35 1023.35 1023.39 1023.39 1023.39 1023.43 1023.47 1023.43 1023.47 1023.51 1023.51 1023.51 1023.47
1016.55 1016.71 1016.91 1017.11 1017.19 1017.35 1017.47 1017.63 1017.71 1017.87 1018.03 1018.15 1018.27 1018.43 1018.55 1018.67 1018.83 1018.99 1019.15 1019.35 1019.47 1019.59 1019.75 1019.87 1020.03 1020.15 1020.27 1020.43 1020.55 1020.71 1020.83 1020.99 1021.19 1021.31 1021.43 1021.59 1021.75 1021.91 1022.07 1022.19 1022.31 1022.43 1022.55 1022.63 1022.75 1022.83 1022.91 1022.99 1023.03 1023.03 1023.07 1023.11 1023.11 1023.15 1023.15 1023.19 1023.23 1023.27 1023.27 1023.27 1023.31 1023.35 1023.35 1023.35 1023.39 1023.43 1023.43 1023.43 1023.43
1016.55 1016.71 1016.87 1017.07 1017.19 1017.31 1017.43 1017.55 1017.67 1017.75 1017.91 1018.07 1018.19 1018.31 1018.43 1018.59 1018.75 1018.87 1019.03 1019.27 1019.43 1019.55 1019.71 1019.83 1019.99 1020.11 1020.23 1020.31 1020.43 1020.55 1020.71 1020.91 1021.11 1021.23 1021.35 1021.51 1021.67 1021.83 1021.99 1022.11 1022.23 1022.35 1022.43 1022.55 1022.63 1022.71 1022.83 1022.87 1022.91 1022.95 1022.95 1022.99 1022.99 1022.99 1023.03 1023.07 1023.15 1023.15 1023.23 1023.23 1023.23 1023.23 1023.23 1023.23 1023.27 1023.27 1023.27 1023.27 1023.27
1016.47 1016.67 1016.83 1016.99 1017.15 1017.27 1017.39 1017.47 1017.55 1017.71 1017.83 1017.99 1018.11 1018.23 1018.39 1018.55 1018.71 1018.83 1018.95 1019.15 1019.31 1019.51 1019.67 1019.79 1019.91 1020.03 1020.11 1020.27 1020.39 1020.51 1020.67 1020.83 1020.99 1021.15 1021.27 1021.43 1021.55 1021.71 1021.83 1021.99 1022.11 1022.23 1022.31 1022.43 1022.55 1022.63 1022.67 1022.71 1022.75 1022.79 1022.83 1022.87 1022.87 1022.87 1022.95 1022.99 1023.03 1023.07 1023.11 1023.15 1023.15 1023.11 1023.11 1023.15 1023.15 1023.15 1023.15 1023.15 1023.15
1016.39 1016.55 1016.75 1016.91 1017.07 1017.19 1017.31 1017.43 1017.55 1017.67 1017.75 1017.87 1018.03 1018.15 1018.31 1018.43 1018.59 1018.71 1018.87 1019.07 1019.27 1019.43 1019.55 1019.71 1019.83 1019.95 1020.07 1020.19 1020.27 1020.43 1020.59 1020.71 1020.87 1021.07 1021.19 1021.31 1021.47 1021.59 1021.75 1021.87 1021.99 1022.11 1022.19 1022.31 1022.43 1022.47 1022.55 1022.59 1022.63 1022.67 1022.71 1022.75 1022.79 1022.79 1022.83 1022.87 1022.91 1022.95 1022.99 1022.99 1022.99 1022.99 1022.99 1022.99 1022.99 1022.99 1022.99 1022.99 1022.99
1016.35 1016.51 1016.71 1016.83 1016.99 1017.15 1017.27 1017.35 1017.47 1017.59 1017.71 1017.83 1017.99 1018.11 1018.27 1018.43 1018.55 1018.67 1018.83 1019.03 1019.23 1019.35 1019.51 1019.63 1019.75 1019.83 1019.99 1020.11 1020.23 1020.35 1020.51 1020.67 1020.79 1020.99 1021.15 1021.27 1021.39 1021.55 1021.67 1021.75 1021.87 1021.99 1022.03 1022.11 1022.27 1022.35 1022.43 1022.47 1022.51 1022.55 1022.55 1022.63 1022.67 1022.71 1022.71 1022.75 1022.79 1022.83 1022.83 1022.83 1022.83 1022.87 1022.87 1022.83 1022.83 1022.87 1022.87 1022.87 1022.83
1016.27 1016.43 1016.59 1016.75 1016.91 1017.07 1017.19 1017.27 1017.39 1017.51 1017.63 1017.75 1017.87 1017.99 1018.15 1018.35 1018.47 1018.59 1018.79 1018.99 1019.11 1019.27 1019.43 1019.59 1019.71 1019.79 1019.91 1020.03 1020.19 1020.31 1020.43 1020.55 1020.71 1020.87 1021.03 1021.19 1021.31 1021.43 1021.55 1021.67 1021.75 1021.83 1021.91 1021.99 1022.11 1022.19 1022.27 1022.31 1022.43 1022.43 1022.51 1022.55 1022.55 1022.55 1022.55 1022.59 1022.67 1022.67 1022.67 1022.71 1022.71 1022.71 1022.71 1022.71 1022.71 1022.75 1022.75 1022.71 1022.71
1016.15 1016.35 1016.51 1016.71 1016.83 1016.99 1017.11 1017.19 1017.31 1017.43 1017.55 1017.71 1017.83 1017.95 1018.11 1018.27 1018.43 1018.55 1018.71 1018.87 1019.03 1019.19 1019.39 1019.55 1019.71 1019.79 1019.87 1019.99 1020.11 1020.23 1020.39 1020.55 1020.71 1020.83 1020.95 1021.11 1021.23 1021.35 1021.43 1021.55 1021.63 1021.71 1021.83 1021.91 1021.99 1022.03 1022.11 1022.19 1022.27 1022.35 1022.43 1022.43 1022.43 1022.43 1022.43 1022.47 1022.51 1022.51 1022.55 1022.55 1022.55 1022.55 1022.55 1022.55 1022.59 1022.63 1022.63 1022.63 1022.59
1016.03 1016.23 1016.43 1016.59 1016.71 1016.87 1016.99 1017.11 1017.23 1017.35 1017.47 1017.63 1017.75 1017.87 1018.03 1018.19 1018.31 1018.47 1018.67 1018.83 1018.99 1019.15 1019.31 1019.51 1019.67 1019.75 1019.83 1019.99 1020.07 1020.19 1020.35 1020.47 1020.63 1020.75 1020.87 1020.99 1021.11 1021.23 1021.31 1021.43 1021.51 1021.59 1021.71 1021.79 1021.83 1021.91 1021.99 1022.07 1022.15 1022.27 1022.27 1022.27 1022.27 1022.31 1022.31 1022.31 1022.35 1022.35 1022.39 1022.43 1022.39 1022.43 1022.43 1022.43 1022.47 1022.51 1022.55 1022.51 1022.51
1015.87 1016.07 1016.27 1016.47 1016.59 1016.75 1016.91 1017.03 1017.15 1017.27 1017.43 1017.55 1017.67 1017.83 1017.95 1018.11 1018.27 1018.43 1018.63 1018.75 1018.91 1019.11 1019.27 1019.47 1019.55 1019.71 1019.87 1019.99 1020.03 1020.15 1020.31 1020.43 1020.55 1020.67 1020.79 1020.87 1020.99 1021.11 1021.19 1021.27 1021.39 1021.47 1021.55 1021.67 1021.71 1021.79 1021.83 1021.95 1022.03 1022.11 1022.15 1022.19 1022.19 1022.19 1022.19 1022.23 1022.23 1022.23 1022.23 1022.27 1022.27 1022.31 1022.31 1022.35 1022.39 1022.43 1022.39 1022.39 1022.39
1015.75 1015.95 1016.11 1016.35 1016.51 1016.67 1016.83 1016.95 1017.07 1017.23 1017.35 1017.47 1017.63 1017.75 1017.91 1018.03 1018.27 1018.43 1018.55 1018.67 1018.83 1019.07 1019.27 1019.43 1019.55 1019.71 1019.83 1019.99 1020.07 1020.15 1020.27 1020.39 1020.51 1020.63 1020.71 1020.79 1020.87 1020.99 1021.07 1021.15 1021.27 1021.31 1021.43 1021.55 1021.59 1021.67 1021.71 1021.83 1021.87 1021.99 1021.99 1022.07 1022.11 1022.11 1022.11 1022.11 1022.11 1022.11 1022.11 1022.15 1022.19 1022.23 1022.27 1022.27 1022.27 1022.27 1022.23 1022.19 1022.15
1015.63 1015.83 1016.03 1016.23 1016.39 1016.55 1016.71 1016.83 1016.99 1017.15 1017.27 1017.43 1017.55 1017.71 1017.87 1018.03 1018.23 1018.43 1018.55 1018.63 1018.83 1018.99 1019.19 1019.39 1019.55 1019.67 1019.83 1019.95 1020.07 1020.15 1020.27 1020.35 1020.43 1020.55 1020.63 1020.71 1020.79 1020.83 1020.95 1020.99 1021.11 1021.19 1021.27 1021.39 1021.47 1021.55 1021.63 1021.67 1021.75 1021.83 1021.83 1021.91 1021.95 1021.95 1021.99 1021.99 1021.99 1022.03 1022.03 1022.07 1022.07 1022.11 1022.11 1022.11 1022.11 1022.11 1022.07 1021.99 1021.95
1015.55 1015.71 1015.99 1016.11 1016.31 1016.47 1016.67 1016.83 1016.99 1017.11 1017.23 1017.35 1017.55 1017.71 1017.87 1018.07 1018.23 1018.39 1018.55 1018.67 1018.83 1018.99 1019.15 1019.31 1019.51 1019.67 1019.79 1019.91 1020.03 1020.11 1020.23 1020.31 1020.43 1020.47 1020.55 1020.67 1020.71 1020.79 1020.83 1020.87 1020.95 1021.03 1021.15 1021.27 1021.39 1021.47 1021.55 1021.55 1021.59 1021.63 1021.67 1021.71 1021.71 1021.75 1021.83 1021.83 1021.87 1021.87 1021.91 1021.91 1021.95 1021.99 1021.99 1021.99 1021.99 1021.99 1021.95 1021.87 1021.83
1015.51 1015.71 1015.91 1016.07 1016.27 1016.43 1016.63 1016.75 1016.91 1017.07 1017.19 1017.35 1017.51 1017.71 1017.87 1018.07 1018.23 1018.39 1018.55 1018.71 1018.83 1018.99 1019.15 1019.27 1019.47 1019.63 1019.75 1019.87 1019.99 1020.07 1020.19 1020.27 1020.35 1020.43 1020.47 1020.55 1020.63 1020.71 1020.75 1020.83 1020.87 1020.95 1021.03 1021.19 1021.27 1021.35 1021.43 1021.43 1021.47 1021.51 1021.51 1021.51 1021.55 1021.55 1021.63 1021.71 1021.71 1021.71 1021.75 1021.79 1021.79 1021.79 1021.79 1021.79 1021.79 1021.79 1021.79 1021.75 1021.71
1015.47 1015.67 1015.87 1016.07 1016.27 1016.43 1016.55 1016.71 1016.87 1017.03 1017.19 1017.35 1017.55 1017.71 1017.91 1018.07 1018.27 1018.43 1018.55 1018.71 1018.87 1019.03 1019.19 1019.31 1019.47 1019.55 1019.71 1019.83 1019.91 1019.99 1020.11 1020.23 1020.27 1020.35 1020.39 1020.47 1020.55 1020.59 1020.67 1020.75 1020.83 1020.87 1020.99 1021.11 1021.19 1021.27 1021.27 1021.31 1021.35 1021.35 1021.39 1021.43 1021.43 1021.43 1021.43 1021.51 1021.55 1021.55 1021.59 1021.59 1021.63 1021.59 1021.59 1021.59 1021.55 1021.55 1021.55 1021.55 1021.51
1015.47 1015.67 1015.87 1016.07 1016.27 1016.43 1016.55 1016.71 1016.83 1016.99 1017.15 1017.35 1017.51 1017.71 1017.91 1018.11 1018.27 1018.43 1018.63 1018.79 1018.95 1019.11 1019.23 1019.35 1019.47 1019.55 1019.71 1019.79 1019.83 1019.95 1020.03 1020.11 1020.19 1020.27 1020.27 1020.39 1020.43 1020.51 1020.59 1020.71 1020.79 1020.83 1020.87 1020.99 1021.11 1021.15 1021.19 1021.19 1021.23 1021.27 1021.31 1021.35 1021.35 1021.35 1021.35 1021.39 1021.39 1021.43 1021.43 1021.43 1021.43 1021.43 1021.39 1021.39 1021.35 1021.35 1021.31 1021.27 1021.27
1015.51 1015.71 1015.87 1016.07 1016.27 1016.43 1016.55 1016.71 1016.83 1016.99 1017.15 1017.35 1017.55 1017.75 1017.95 1018.11 1018.31 1018.51 1018.71 1018.83 1019.03 1019.15 1019.27 1019.39 1019.47 1019.55 1019.67 1019.71 1019.83 1019.91 1019.99 1020.03 1020.11 1020.15 1020.23 1020.27 1020.31 1020.43 1020.51 1020.63 1020.67 1020.71 1020.75 1020.83 1020.95 1021.07 1021.15 1021.15 1021.19 1021.27 1021.27 1021.27 1021.31 1021.31 1021.27 1021.27 1021.31 1021.31 1021.27 1021.27 1021.23 1021.19 1021.19 1021.15 1021.15 1021.11 1021.07 1020.99 1020.99
1015.55 1015.71 1015.91 1016.07 1016.23 1016.39 1016.55 1016.71 1016.83 1016.99 1017.19 1017.39 1017.59 1017.83 1017.99 1018.15 1018.35 1018.55 1018.71 1018.87 1019.03 1019.15 1019.27 1019.39 1019.47 1019.55 1019.63 1019.71 1019.79 1019.83 1019.91 1019.99 1020.03 1020.07 1020.11 1020.19 1020.27 1020.35 1020.43 1020.51 1020.55 1020.59 1020.63 1020.71 1020.83 1020.95 1021.03 1021.07 1021.15 1021.15 1021.19 1021.23 1021.27 1021.27 1021.23 1021.23 1021.19 1021.15 1021.15 1021.07 1020.99 1020.95 1020.95 1020.95 1020.87 1020.83 1020.83 1020.79 1020.79
1015.59 1015.75 1015.91 1016.07 1016.19 1016.35 1016.51 1016.71 1016.87 1017.03 1017.23 1017.43 1017.63 1017.83 1018.03 1018.19 1018.43 1018.55 1018.71 1018.91 1019.03 1019.15 1019.27 1019.35 1019.43 1019.55 1019.63 1019.71 1019.75 1019.79 1019.83 1019.87 1019.91 1019.95 1019.99 1020.11 1020.19 1020.27 1020.31 1020.35 1020.39 1020.43 1020.43 1020.51 1020.55 1020.63 1020.71 1020.83 1020.87 1020.95 1020.99 1021.11 1021.11 1021.11 1021.07 1020.99 1020.95 1020.91 1020.83 1020.71 1020.63 1020.59 1020.55 1020.55 1020.55 1020.55 1020.55 1020.51 1020.51
1015.67 1015.79 1015.95 1016.07 1016.23 1016.39 1016.55 1016.71 1016.91 1017.07 1017.27 1017.47 1017.67 1017.83 1018.03 1018.23 1018.43 1018.55 1018.71 1018.91 1019.03 1019.15 1019.27 1019.35 1019.43 1019.47 1019.55 1019.59 1019.67 1019.71 1019.71 1019.79 1019.83 1019.87 1019.91 1019.99 1020.07 1020.11 1020.15 1020.19 1020.19 1020.27 1020.31 1020.27 1020.31 1020.39 1020.43 1020.43 1020.51 1020.55 1020.71 1020.83 1020.83 1020.83 1020.71 1020.63 1020.55 1020.51 1020.43 1020.31 1020.27 1020.23 1020.19 1020.11 1020.11 1020.11 1020.07 1020.07 1020.07
1015.71 1015.83 1015.99 1016.11 1016.27 1016.43 1016.59 1016.79 1016.99 1017.15 1017.35 1017.55 1017.71 1017.87 1018.07 1018.27 1018.43 1018.55 1018.71 1018.87 1018.99 1019.11 1019.23 1019.35 1019.39 1019.43 1019.51 1019.55 1019.59 1019.63 1019.71 1019.75 1019.79 1019.83 1019.83 1019.87 1019.91 1019.95 1019.95 1019.99 1019.99 1020.11 1020.19 1020.19 1020.15 1020.11 1020.19 1020.23 1020.23 1020.27 1020.39 1020.55 1020.55 1020.51 1020.43 1020.31 1020.19 1020.15 1020.11 1020.03 1019.95 1019.91 1019.83 1019.83 1019.75 1019.71 1019.63 1019.59 1019.59
1015.83 1015.95 1016.11 1016.23 1016.39 1016.51 1016.67 1016.87 1017.03 1017.19 1017.39 1017.55 1017.75 1017.91 1018.07 1018.27 1018.43 1018.55 1018.71 1018.83 1018.95 1019.07 1019.19 1019.27 1019.35 1019.43 1019.43 1019.51 1019.55 1019.55 1019.59 1019.67 1019.71 1019.75 1019.79 1019.79 1019.83 1019.83 1019.83 1019.79 1019.79 1019.83 1019.91 1019.95 1019.99 1019.99 1019.99 1019.99 1020.03 1020.03 1020.11 1020.15 1020.19 1020.19 1020.11 1019.99 1019.91 1019.83 1019.79 1019.71 1019.67 1019.59 1019.55 1019.47 1019.43 1019.39 1019.31 1019.27 1019.23
1015.91 1016.07 1016.19 1016.35 1016.43 1016.59 1016.75 1016.91 1017.07 1017.23 1017.39 1017.55 1017.75 1017.95 1018.11 1018.27 1018.39 1018.55 1018.67 1018.79 1018.91 1019.03 1019.15 1019.23 1019.27 1019.35 1019.43 1019.43 1019.43 1019.51 1019.55 1019.55 1019.59 1019.63 1019.67 1019.67 1019.67 1019.63 1019.59 1019.63 1019.63 1019.67 1019.71 1019.71 1019.75 1019.79 1019.79 1019.83 1019.83 1019.83 1019.83 1019.87 1019.91 1019.87 1019.83 1019.75 1019.71 1019.59 1019.51 1019.43 1019.39 1019.27 1019.23 1019.19 1019.15 1019.11 1019.03 1018.99 1018.91
1016.03 1016.15 1016.27 1016.43 1016.55 1016.71 1016.83 1016.95 1017.03 1017.19 1017.39 1017.59 1017.79 1017.95 1018.11 1018.27 1018.35 1018.47 1018.59 1018.71 1018.83 1018.91 1018.99 1019.11 1019.19 1019.27 1019.27 1019.35 1019.35 1019.43 1019.43 1019.43 1019.43 1019.47 1019.51 1019.47 1019.51 1019.47 1019.43 1019.43 1019.47 1019.47 1019.51 1019.55 1019.55 1019.59 1019.55 1019.55 1019.59 1019.59 1019.59 1019.63 1019.67 1019.67 1019.59 1019.51 1019.43 1019.35 1019.27 1019.15 1019.07 1018.99 1018.99 1018.87 1018.83 1018.79 1018.75 1018.71 1018.63
1016.15 1016.27 1016.43 1016.51 1016.63 1016.75 1016.87 1016.99 1017.11 1017.27 1017.43 1017.63 1017.79 1017.95 1018.07 1018.19 1018.31 1018.43 1018.55 1018.67 1018.75 1018.83 1018.95 1019.03 1019.11 1019.15 1019.19 1019.19 1019.23 1019.23 1019.23 1019.23 1019.27 1019.27 1019.27 1019.27 1019.27 1019.27 1019.27 1019.27 1019.27 1019.31 1019.35 1019.35 1019.35 1019.39 1019.39 1019.35 1019.35 1019.35 1019.35 1019.39 1019.43 1019.39 1019.31 1019.27 1019.19 1019.15 1019.03 1018.95 1018.87 1018.83 1018.75 1018.71 1018.63 1018.55 1018.51 1018.43 1018.43
1016.27 1016.43 1016.51 1016.55 1016.67 1016.79 1016.91 1017.07 1017.15 1017.31 1017.43 1017.59 1017.75 1017.91 1018.03 1018.15 1018.27 1018.43 1018.51 1018.63 1018.71 1018.83 1018.87 1018.95 1018.99 1019.03 1019.07 1019.07 1019.07 1019.07 1019.07 1019.11 1019.11 1019.11 1019.11 1019.15 1019.15 1019.15 1019.15 1019.15 1019.15 1019.15 1019.19 1019.19 1019.15 1019.15 1019.15 1019.15 1019.15 1019.15 1019.15 1019.15 1019.19 1019.19 1019.15 1019.07 1018.99 1018.91 1018.83 1018.71 1018.63 1018.59 1018.55 1018.47 1018.39 1018.31 1018.27 1018.27 1018.19
1016.39 1016.47 1016.55 1016.63 1016.71 1016.83 1016.99 1017.11 1017.23 1017.35 1017.47 1017.59 1017.75 1017.87 1017.99 1018.15 1018.27 1018.39 1018.51 1018.59 1018.71 1018.75 1018.83 1018.83 1018.91 1018.95 1018.95 1018.99 1018.95 1018.95 1018.95 1018.95 1018.95 1018.95 1018.95 1018.99 1018.99 1018.99 1018.99 1018.99 1018.95 1018.91 1018.91 1018.91 1018.91 1018.87 1018.83 1018.87 1018.83 1018.87 1018.87 1018.91 1018.99 1018.99 1018.91 1018.83 1018.75 1018.67 1018.55 1018.43 1018.39 1018.31 1018.27 1018.23 1018.19 1018.11 1018.07 1018.03 1017.99
1016.43 1016.51 1016.59 1016.67 1016.79 1016.91 1017.03 1017.15 1017.27 1017.39 1017.51 1017.63 1017.75 1017.91 1018.03 1018.15 1018.27 1018.43 1018.51 1018.55 1018.67 1018.71 1018.79 1018.79 1018.83 1018.83 1018.83 1018.83 1018.83 1018.83 1018.79 1018.75 1018.75 1018.79 1018.83 1018.83 1018.83 1018.83 1018.83 1018.75 1018.71 1018.67 1018.63 1018.67 1018.63 1018.63 1018.63 1018.63 1018.63 1018.63 1018.63 1018.67 1018.71 1018.71 1018.67 1018.59 1018.51 1018.43 1018.27 1018.19 1018.11 1018.07 1017.99 1017.99 1017.95 1017.87 1017.83 1017.79 1017.79
1016.47 1016.55 1016.63 1016.71 1016.83 1016.99 1017.11 1017.19 1017.31 1017.43 1017.55 1017.67 1017.79 1017.91 1018.07 1018.19 1018.31 1018.43 1018.47 1018.55 1018.63 1018.71 1018.75 1018.75 1018.75 1018.75 1018.71 1018.71 1018.71 1018.71 1018.71 1018.67 1018.67 1018.67 1018.67 1018.67 1018.67 1018.63 1018.55 1018.47 1018.43 1018.43 1018.43 1018.43 1018.39 1018.39 1018.39 1018.39 1018.39 1018.39 1018.43 1018.47 1018.51 1018.47 1018.43 1018.35 1018.27 1018.15 1018.03 1017.95 1017.83 1017.79 1017.71 1017.71 1017.67 1017.63 1017.55 1017.55 1017.55
1016.51 1016.55 1016.63 1016.75 1016.87 1016.99 1017.15 1017.27 1017.39 1017.47 1017.59 1017.71 1017.83 1017.99 1018.11 1018.23 1018.31 1018.39 1018.47 1018.55 1018.63 1018.67 1018.67 1018.67 1018.71 1018.71 1018.71 1018.71 1018.71 1018.67 1018.63 1018.59 1018.55 1018.55 1018.51 1018.51 1018.47 1018.43 1018.27 1018.19 1018.11 1018.11 1018.11 1018.11 1018.11 1018.11 1018.11 1018.11 1018.11 1018.15 1018.19 1018.27 1018.27 1018.27 1018.19 1018.11 1017.99 1017.87 1017.75 1017.71 1017.59 1017.55 1017.47 1017.43 1017.39 1017.35 1017.35 1017.35 1017.31
1016.51 1016.55 1016.67 1016.79 1016.91 1017.03 1017.15 1017.31 1017.43 1017.55 1017.67 1017.79 1017.91 1018.03 1018.11 1018.23 1018.27 1018.35 1018.43 1018.55 1018.55 1018.59 1018.59 1018.59 1018.63 1018.63 1018.59 1018.59 1018.59 1018.55 1018.51 1018.51 1018.47 1018.43 1018.35 1018.27 1018.27 1018.15 1018.07 1017.95 1017.87 1017.83 1017.83 1017.83 1017.83 1017.83 1017.83 1017.83 1017.87 1017.91 1017.99 1018.03 1017.99 1017.99 1017.95 1017.83 1017.75 1017.67 1017.55 1017.43 1017.35 1017.27 1017.23 1017.15 1017.15 1017.07 1017.07 1017.11 1017.07
1016.55 1016.59 1016.71 1016.83 1016.99 1017.11 1017.23 1017.39 1017.51 1017.63 1017.71 1017.83 1017.91 1017.99 1018.11 1018.19 1018.27 1018.31 1018.43 1018.55 1018.55 1018.55 1018.55 1018.55 1018.51 1018.47 1018.47 1018.47 1018.43 1018.39 1018.31 1018.31 1018.27 1018.23 1018.11 1018.03 1017.99 1017.91 1017.83 1017.71 1017.63 1017.59 1017.59 1017.63 1017.63 1017.63 1017.63 1017.63 1017.67 1017.71 1017.79 1017.83 1017.79 1017.75 1017.71 1017.63 1017.55 1017.43 1017.31 1017.23 1017.15 1017.03 1016.99 1016.95 1016.87 1016.79 1016.75 1016.79 1016.71
1016.59 1016.67 1016.75 1016.87 1017.03 1017.19 1017.31 1017.43 1017.55 1017.67 1017.75 1017.83 1017.91 1017.99 1018.07 1018.19 1018.27 1018.31 1018.43 1018.51 1018.55 1018.55 1018.55 1018.47 1018.39 1018.35 1018.31 1018.27 1018.23 1018.15 1018.11 1018.03 1017.99 1017.99 1017.87 1017.79 1017.71 1017.71 1017.63 1017.55 1017.43 1017.39 1017.43 1017.43 1017.43 1017.43 1017.43 1017.43 1017.43 1017.47 1017.55 1017.55 1017.55 1017.55 1017.47 1017.39 1017.27 1017.19 1017.15 1017.03 1016.99 1016.83 1016.79 1016.71 1016.67 1016.55 1016.47 1016.43 1016.39
1016.67 1016.75 1016.83 1016.99 1017.15 1017.27 1017.39 1017.47 1017.59 1017.71 1017.79 1017.83 1017.95 1017.99 1018.11 1018.19 1018.27 1018.35 1018.43 1018.47 1018.51 1018.51 1018.47 1018.39 1018.27 1018.23 1018.15 1018.11 1018.03 1017.95 1017.83 1017.75 1017.75 1017.71 1017.63 1017.55 1017.51 1017.47 1017.43 1017.35 1017.27 1017.19 1017.19 1017.23 1017.23 1017.23 1017.23 1017.23 1017.19 1017.23 1017.27 1017.31 1017.31 1017.27 1017.23 1017.15 1017.07 1016.99 1016.91 1016.83 1016.79 1016.67 1016.55 1016.51 1016.43 1016.39 1016.27 1016.19 1016.11
1016.83 1016.91 1017.03 1017.15 1017.23 1017.35 1017.43 1017.55 1017.67 1017.71 1017.83 1017.95 1018.03 1018.11 1018.11 1018.19 1018.27 1018.31 1018.35 1018.43 1018.39 1018.39 1018.31 1018.23 1018.11 1018.03 1017.99 1017.95 1017.87 1017.79 1017.67 1017.55 1017.55 1017.47 1017.43 1017.39 1017.31 1017.27 1017.23 1017.15 1017.07 1016.99 1016.95 1016.95 1016.99 1016.99 1016.99 1016.99 1016.95 1016.95 1016.99 1017.03 1017.07 1017.03 1016.99 1016.99 1016.91 1016.83 1016.71 1016.67 1016.59 1016.51 1016.39 1016.27 1016.19 1016.15 1016.11 1015.99 1015.95
Thickness
5629 5626 5624 5622 5619 5616 5614 5612 5609 5607 5605 5602 5600 5598 5596 5593 5590 5587 5584 5582 5580 5577 5576 5573 5571 5569 5566 5564 5562 5560 5559 5557 5555 5553 5550 5548 5545 5543 5541 5538 5536 5534 5532 5530 5528 5526 5524 5523 5521 5518 5517 5515 5513 5512 5511 5509 5506 5505 5503 5502 5501 5499 5498 5497 5495 5494 5493 5491 5490
5627 5624 5622 5619 5616 5614 5612 5609 5607 5605 5602 5600 5598 5596 5594 5591 5588 5586 5583 5581 5578 5576 5574 5572 5570 5567 5565 5562 5561 5559 5557 5556 5553 5551 5548 5546 5544 5541 5538 5536 5534 5532 5529 5527 5525 5523 5521 5520 5518 5516 5514 5512 5510 5509 5507 5506 5504 5502 5501 5499 5498 5496 5495 5494 5492 5491 5490 5488 5487
5624 5622 5619 5617 5614 5612 5610 5607 5605 5603 5600 5598 5595 5593 5591 5589 5586 5584 5582 5579 5576 5575 5572 5570 5568 5566 5563 5561 5559 5557 5556 5553 5551 5548 5546 5543 5541 5539 5536 5534 5531 5529 5527 5525 5523 5521 5519 5517 5515 5513 5511 5509 5508 5506 5505 5503 5502 5500 5498 5497 5495 5493 5492 5490 5489 5488 5486 5485 5484
5621 5619 5617 5615 5612 5610 5608 5605 5603 5600 5598 5596 5593 5591 5588 5586 5584 5581 5579 5577 5574 5572 5570 5569 5566 5564 5561 5559 5557 5555 5553 5551 5549 5546 5544 5541 5539 5536 5534 5531 5528 5526 5524 5522 5520 5518 5516 5514 5512 5510 5508 5507 5505 5504 5503 5501 5499 5497 5495 5494 5492 5491 5489 5488 5486 5485 5483 5482 5481
5618 5616 5614 5612 5609 5607 5605 5602 5600 5598 5595 5593 5590 5588 5585 5583 5581 5579 5576 5574 5572 5570 5569 5567 5564 5562 5560 5557 5555 5553 5551 5549 5547 5544 5542 5539 5536 5534 5531 5528 5526 5524 5521 5519 5517 5515 5513 5511 5509 5507 5506 5504 5503 5501 5499 5498 5496 5494 5493 5492 5489 5488 5487 5485 5484 5482 5481 5479 5478
5615 5613 5611 5609 5607 5604 5602 5599 5598 5595 5593 5590 5588 5585 5583 5581 5579 5576 5574 5573 5571 5569 5566 5564 5562 5560 5557 5555 5553 5551 5549 5546 5544 5541 5539 5536 5534 5531 5528 5526 5523 5521 5519 5516 5514 5512 5510 5508 5506 5505 5503 5501 5500 5498 5497 5495 5494 5492 5490 5488 5487 5486 5484 5483 5481 5479 5478 5476 5474
5613 5611 5608 5606 5604 5601 5599 5596 5595 5592 5590 5587 5586 5584 5581 5579 5577 5575 5573 5571 5568 5566 5564 5562 5560 5557 5555 5553 5551 5549 5547 5544 5541 5539 5537 5534 5531 5529 5526 5523 5521 5518 5516 5514 5511 5509 5507 5505 5504 5502 5501 5499 5498 5496 5495 5493 5491 5489 5487 5486 5485 5483 5482 5480 5479 5477 5475 5474 5472
5609 5608 5605 5602 5601 5598 5596 5594 5592 5590 5588 5585 5583 5582 5580 5577 5575 5573 5571 5569 5567 5564 5562 5560 5558 5556 5553 5551 5549 5547 5544 5542 5539 5537 5534 5532 5529 5526 5523 5521 5518 5515 5513 5511 5509 5507 5505 5503 5501 5500 5498 5497 5495 5494 5492 5490 5489 5487 5485 5484 5482 5481 5479 5478 5476 5474 5472 5471 5469
5607 5605 5602 5600 5598 5596 5594 5592 5590 5588 5586 5584 5581 5579 5578 5575 5574 5571 5569 5567 5564 5562 5560 5557 5555 5553 5551 5549 5547 5545 5542 5539 5537 5534 5531 5529 5526 5523 5521 5518 5516 5513 5511 5509 5507 5505 5503 5501 5499 5498 5496 5495 5493 5492 5490 5488 5486 5484 5483 5481 5480 5478 5476 5475 5473 5471 5470 5468 5466
5604 5602 5600 5598 5595 5593 5591 5590 5588 5586 5585 5582 5580 5578 5576 5574 5572 5569 5567 5565 5562 5559 5557 5555 5553 5551 5549 5546 5544 5542 5540 5537 5534 5532 5529 5526 5524 5521 5519 5516 5513 5511 5509 5507 5505 5502 5501 5499 5497 5496 5494 5492 5491 5489 5488 5486 5484 5482 5480 5479 5477 5475 5473 5472 5471 5469 5467 5466 5464
5602 5600 5598 5596 5594 5592 5590 5588 5586 5585 5582 5580 5578 5576 5574 5572 5570 5568 5566 5563 5560 5557 5555 5553 5551 5549 5546 5544 5542 5539 5537 5534 5532 5529 5526 5524 5521 5519 5516 5514 5512 5509 5507 5505 5503 5501 5499 5497 5495 5494 5492 5490 5489 5487 5485 5483 5481 5480 5478 5476 5474 5473 5471 5469 5467 5465 5464 5462 5460
5601 5598 5596 5594 5592 5590 5588 5586 5584 5582 5580 5578 5576 5574 5572 5570 5568 5566 5563 5561 5558 5556 5553 5551 5549 5546 5544 5542 5539 5537 5535 5532 5529 5527 5524 5521 5519 5517 5514 5511 5509 5507 5505 5503 5501 5499 5496 5495 5494 5492 5490 5488 5487 5485 5483 5481 5479 5477 5475 5474 5472 5470 5468 5467 5464 5463 5461 5459 5457
5599 5597 5594 5592 5590 5588 5586 5584 5582 5580 5578 5576 5574 5572 5571 5568 5566 5563 5561 5558 5556 5553 5551 5548 5546 5544 5542 5539 5537 5534 5532 5529 5527 5524 5522 5519 5516 5514 5511 5509 5508 5506 5503 5501 5499 5497 5495 5493 5491 5489 5487 5486 5484 5482 5480 5479 5477 5475 5473 5471 5470 5468 5465 5464 5461 5459 5457 5455 5453
5597 5595 5592 5590 5588 5586 5584 5582 5580 5578 5576 5574 5572 5570 5568 5566 5564 5561 5559 5556 5554 5551 5549 5545 5543 5541 5539 5537 5535 5532 5530 5527 5524 5522 5519 5517 5514 5512 5510 5507 5505 5503 5501 5499 5497 5495 5493 5491 5488 5487 5485 5483 5481 5480 5478 5476 5474 5473 5471 5469 5467 5465 5463 5461 5458 5456 5454 5452 5450
5596 5593 5591 5588 5586 5584 5582 5580 5578 5576 5575 5572 5570 5569 5566 5564 5562 5559 5557 5554 5551 5549 5546 5543 5540 5538 5536 5534 5532 5529 5527 5524 5522 5520 5517 5515 5512 5511 5508 5506 5503 5501 5499 5497 5495 5492 5490 5488 5486 5484 5482 5480 5478 5477 5475 5473 5472 5470 5468 5466 5464 5462 5460 5457 5455 5453 5450 5449 5446
5594 5592 5589 5587 5584 5582 5580 5578 5576 5574 5572 5570 5568 5566 5564 5562 5559 5557 5554 5552 5549 5546 5543 5541 5538 5536 5533 5531 5529 5527 5524 5522 5520 5517 5515 5513 5510 5508 5506 5503 5501 5499 5497 5494 5492 5491 5488 5486 5484 5481 5479 5478 5476 5474 5472 5470 5469 5467 5465 5463 5461 5458 5455 5453 5451 5449 5447 5445 5443
5593 5590 5588 5585 5583 5581 5578 5576 5574 5573 5570 5568 5566 5564 5562 5559 5557 5554 5552 5549 5547 5544 5541 5538 5536 5533 5531 5528 5526 5524 5522 5519 5517 5515 5513 5511 5508 5506 5504 5501 5499 5497 5495 5493 5490 5488 5485 5484 5481 5480 5477 5475 5473 5471 5469 5467 5465 5464 5462 5460 5457 5455 5452 5450 5447 5445 5443 5441 5440
5591 5588 5586 5583 5581 5578 5576 5574 5572 5571 5569 5567 5564 5562 5559 5557 5554 5552 5549 5547 5544 5542 5539 5535 5533 5531 5528 5526 5523 5521 5519 5516 5514 5513 5511 5508 5506 5504 5502 5499 5497 5495 5493 5490 5488 5485 5483 5481 5478 5477 5475 5473 5471 5469 5466 5465 5462 5460 5458 5456 5454 5451 5449 5446 5444 5442 5440 5439 5437
5589 5586 5584 5581 5578 5577 5574 5572 5570 5568 5567 5564 5562 5559 5557 5554 5551 5549 5546 5544 5542 5539 5536 5533 5531 5528 5526 5523 5520 5518 5517 5515 5512 5510 5508 5506 5503 5501 5499 5497 5495 5492 5490 5487 5485 5483 5480 5478 5475 5474 5472 5470 5469 5467 5464 5462 5460 5457 5455 5453 5451 5448 5446 5443 5441 5438 5437 5434 5433
5587 5584 5581 5579 5576 5574 5572 5570 5568 5566 5564 5562 5559 5556 5554 5551 5549 5546 5543 5541 5538 5536 5533 5531 5527 5525 5523 5521 5518 5516 5514 5511 5509 5507 5505 5503 5501 5499 5496 5494 5492 5490 5488 5485 5482 5480 5477 5475 5473 5471 5470 5468 5466 5464 5462 5460 5457 5455 5453 5450 5448 5445 5443 5440 5438 5435 5434 5431 5430
5585 5582 5579 5577 5574 5572 5570 5568 5566 5564 5562 5560 5556 5554 5551 5549 5546 5544 5541 5538 5535 5533 5530 5527 5525 5523 5520 5518 5516 5513 5511 5509 5507 5505 5503 5501 5498 5496 5494 5491 5489 5487 5484 5482 5479 5477 5474 5472 5470 5468 5466 5464 5463 5461 5458 5456 5454 5452 5450 5448 5445 5443 5440 5438 5435 5433 5431 5429 5426
5582 5579 5577 5574 5572 5570 5568 5566 5564 5561 5560 5557 5554 5551 5549 5546 5543 5540 5538 5534 5532 5529 5527 5525 5522 5520 5518 5515 5513 5511 5509 5507 5505 5502 5500 5498 5495 5494 5491 5489 5486 5484 5481 5479 5476 5474 5471 5469 5467 5465 5462 5461 5459 5457 5455 5453 5451 5449 5447 5445 5443 5441 5438 5436 5433 5431 5428 5426 5424
5579 5576 5574 5572 5570 5568 5566 5563 5561 5559 5557 5554 5551 5548 5545 5542 5540 5537 5534 5531 5528 5526 5524 5521 5519 5517 5515 5513 5511 5509 5507 5505 5502 5500 5498 5496 5493 5491 5489 5486 5483 5481 5478 5476 5473 5470 5468 5466 5463 5461 5459 5457 5455 5453 5452 5449 5447 5445 5444 5442 5440 5438 5435 5433 5431 5428 5426 5423 5421
5576 5574 5572 5569 5568 5565 5563 5561 5559 5556 5554 5552 5548 5545 5542 5539 5537 5534 5531 5528 5525 5523 5521 5519 5516 5514 5512 5510 5508 5506 5504 5502 5500 5498 5495 5493 5491 5488 5486 5483 5481 5478 5476 5473 5471 5468 5465 5462 5460 5458 5455 5453 5451 5449 5447 5446 5445 5442 5441 5439 5438 5436 5433 5431 5428 5426 5424 5421 5419
5574 5571 5569 5567 5565 5563 5561 5559 5556 5553 5551 5548 5545 5542 5540 5536 5533 5531 5528 5525 5522 5520 5518 5516 5513 5512 5510 5507 5505 5503 5501 5499 5497 5495 5492 5491 5488 5485 5483 5481 5478 5476 5474 5471 5468 5466 5463 5461 5458 5455 5453 5451 5448 5447 5445 5443 5442 5441 5439 5437 5436 5435 5432 5430 5428 5425 5422 5419 5416
5571 5569 5567 5565 5562 5560 5558 5556 5553 5551 5547 5545 5542 5539 5536 5533 5530 5528 5525 5522 5520 5518 5515 5513 5511 5509 5507 5505 5503 5500 5499 5496 5494 5492 5490 5488 5485 5483 5480 5478 5476 5474 5472 5469 5466 5464 5461 5459 5456 5454 5451 5449 5447 5445 5443 5442 5441 5439 5438 5437 5435 5433 5432 5430 5427 5425 5422 5419 5417
5568 5566 5564 5562 5560 5557 5555 5553 5550 5547 5544 5541 5539 5535 5533 5530 5527 5525 5522 5520 5517 5515 5513 5510 5508 5506 5504 5502 5500 5498 5496 5493 5491 5489 5486 5484 5482 5480 5478 5476 5474 5472 5469 5466 5464 5461 5459 5457 5455 5452 5449 5446 5445 5443 5442 5441 5439 5438 5436 5435 5433 5431 5429 5428 5426 5424 5421 5419 5416
5565 5563 5561 5558 5556 5554 5551 5549 5547 5544 5541 5538 5536 5532 5530 5527 5525 5522 5519 5517 5515 5512 5509 5507 5506 5503 5501 5499 5497 5495 5493 5491 5488 5486 5484 5482 5480 5477 5475 5474 5472 5469 5467 5464 5461 5459 5456 5454 5451 5449 5447 5444 5443 5442 5440 5439 5437 5436 5434 5432 5431 5429 5428 5425 5423 5421 5419 5417 5414
5562 5559 5557 5555 5553 5551 5548 5546 5544 5541 5538 5535 5533 5529 5527 5524 5522 5519 5517 5515 5512 5510 5507 5505 5503 5501 5498 5496 5495 5493 5490 5488 5485 5484 5481 5479 5477 5476 5473 5471 5469 5466 5464 5461 5459 5456 5454 5451 5449 5447 5444 5442 5439 5438 5437 5436 5435 5434 5432 5430 5428 5427 5425 5423 5421 5419 5417 5414 5412
5558 5556 5554 5552 5550 5547 5546 5543 5541 5538 5535 5532 5529 5527 5524 5521 5519 5517 5514 5512 5510 5507 5505 5503 5500 5498 5496 5494 5492 5490 5487 5486 5483 5481 5479 5476 5475 5473 5471 5469 5467 5464 5461 5458 5456 5453 5451 5448 5446 5444 5441 5439 5437 5435 5434 5433 5432 5430 5429 5427 5426 5424 5422 5420 5418 5415 5413 5411 5409
5555 5552 5550 5549 5547 5544 5542 5540 5537 5535 5532 5529 5527 5524 5522 5520 5517 5514 5512 5510 5508 5505 5502 5500 5498 5495 5494 5492 5489 5487 5485 5483 5481 5479 5476 5474 5473 5471 5469 5467 5464 5461 5458 5455 5453 5450 5448 5445 5443 5441 5438 5436 5434 5432 5431 5430 5429 5427 5426 5424 5423 5421 5418 5417 5415 5412 5410 5407 5404
5551 5549 5547 5545 5543 5541 5539 5536 5534 5532 5529 5527 5524 5522 5519 5516 5514 5512 5509 5506 5504 5502 5500 5497 5495 5493 5491 5489 5487 5485 5483 5481 5479 5476 5475 5472 5470 5468 5466 5464 5461 5458 5456 5453 5450 5448 5445 5443 5440 5438 5435 5433 5431 5429 5427 5426 5426 5424 5423 5422 5420 5418 5416 5413 5411 5409 5406 5403 5400
5547 5546 5544 5542 5540 5538 5536 5533 5530 5528 5527 5523 5521 5519 5516 5513 5510 5508 5506 5503 5501 5499 5496 5494 5493 5490 5488 5486 5484 5482 5481 5479 5476 5474 5472 5469 5467 5465 5463 5461 5458 5456 5453 5451 5448 5446 5443 5440 5437 5435 5433 5430 5428 5427 5425 5423 5422 5421 5420 5419 5417 5415 5412 5410 5407 5405 5402 5400 5396
5545 5543 5541 5540 5537 5535 5532 5530 5528 5525 5523 5521 5518 5515 5513 5510 5507 5505 5502 5500 5498 5495 5494 5491 5489 5488 5485 5484 5482 5480 5478 5476 5474 5472 5469 5467 5464 5462 5460 5458 5457 5454 5451 5448 5446 5443 5441 5438 5436 5433 5431 5428 5425 5424 5422 5421 5420 5419 5417 5416 5414 5412 5410 5407 5405 5401 5399 5396 5392
5542 5540 5538 5536 5534 5531 5529 5527 5524 5522 5520 5517 5515 5512 5509 5506 5504 5501 5499 5497 5494 5492 5490 5488 5486 5484 5483 5480 5479 5476 5474 5473 5471 5469 5466 5464 5461 5459 5458 5456 5454 5452 5449 5446 5444 5441 5438 5436 5433 5430 5427 5425 5422 5421 5420 5418 5417 5416 5414 5413 5411 5409 5407 5403 5401 5398 5395 5392 5389
5539 5537 5535 5533 5531 5528 5526 5523 5521 5519 5516 5514 5511 5508 5506 5503 5501 5499 5496 5493 5491 5489 5487 5485 5483 5481 5479 5477 5475 5473 5471 5469 5467 5465 5463 5461 5459 5457 5455 5454 5452 5450 5447 5445 5442 5439 5436 5434 5430 5428 5424 5422 5419 5418 5417 5415 5414 5413 5411 5409 5408 5405 5403 5400 5397 5394 5391 5388 5385
5536 5534 5532 5530 5527 5525 5522 5520 5518 5515 5512 5510 5507 5505 5502 5500 5498 5495 5493 5490 5488 5486 5484 5482 5480 5478 5476 5474 5472 5470 5468 5466 5464 5462 5460 5458 5456 5454 5453 5451 5450 5448 5445 5442 5439 5436 5434 5431 5428 5425 5421 5419 5416 5415 5413 5411 5410 5409 5407 5406 5403 5401 5399 5396 5394 5391 5388 5384 5381
5533 5531 5529 5527 5524 5521 5519 5517 5514 5511 5509 5507 5504 5502 5499 5497 5494 5492 5490 5487 5484 5482 5481 5479 5477 5475 5474 5471 5469 5467 5466 5463 5461 5459 5458 5455 5454 5452 5450 5449 5448 5445 5443 5439 5436 5434 5431 5428 5425 5422 5419 5415 5413 5411 5409 5408 5406 5404 5403 5401 5399 5397 5394 5392 5390 5387 5385 5381 5378
5530 5527 5525 5523 5521 5518 5515 5513 5511 5508 5505 5503 5501 5499 5496 5494 5491 5488 5486 5483 5481 5479 5477 5476 5474 5473 5471 5469 5467 5465 5463 5462 5460 5457 5455 5454 5452 5450 5448 5446 5446 5443 5441 5437 5434 5431 5428 5425 5422 5418 5415 5412 5409 5407 5405 5403 5402 5400 5398 5396 5394 5392 5389 5387 5385 5383 5380 5377 5374
5526 5524 5522 5519 5517 5514 5512 5509 5507 5505 5502 5500 5497 5495 5492 5490 5487 5485 5482 5480 5477 5476 5474 5472 5471 5470 5468 5466 5464 5463 5461 5460 5457 5455 5453 5451 5450 5447 5446 5443 5442 5440 5438 5435 5431 5428 5425 5421 5418 5415 5411 5407 5405 5402 5400 5399 5396 5395 5393 5391 5389 5387 5385 5382 5380 5377 5376 5373 5370
5522 5520 5517 5515 5513 5510 5508 5506 5503 5501 5498 5495 5493 5490 5488 5486 5484 5481 5479 5477 5475 5473 5471 5470 5468 5467 5465 5463 5461 5460 5459 5457 5455 5453 5450 5449 5447 5445 5443 5441 5440 5438 5435 5433 5430 5426 5422 5419 5415 5412 5408 5403 5400 5398 5395 5393 5392 5390 5388 5385 5383 5381 5380 5378 5375 5372 5370 5368 5365